Terminal Aerodrome Forecast
Issued by NWS Mobile, AL

Home | Current Version | Previous Version | Text Only | Print | Product List | Glossary On
Versions: 1 2 3 4 5 6 7 8 9 10 11 12 13 14 15 16 17 18 19 20 21
000
FTUS44 KMOB 201400 AAA
TAFPNS
TAF AMD
KPNS 201428Z 2014/2112 03007KT P6SM BKN025
     FM201800 03006KT P6SM SCT030
     FM210000 13004KT P6SM FEW250
     FM210900 06004KT 5SM BR SCT250=

USA.gov is the U.S. government's official web portal to all federal, state and local government web resources and services.